Tracking 29088 objects as of 14-Jul-2024
HD Live streaming from Space Station
objects crossing your sky now

COSMOS 1275 DEB

Track COSMOS 1275 DEB now!
10-day predictions


NORAD ID: 42096
Int'l Code: 1981-053PG
Perigee: 778.0 km
Apogee: 848.6 km
Inclination: 82.7 °
Period: 101.0 minutes
Semi major axis: 7184 km
RCS: Unknown
Launch date: June 4, 1981
Source: Commonwealth of Independent States (former USSR) (CIS)
Launch site: PLESETSK MISSILE AND SPACE COMPLEX (PKMTR)

Note: This is SATELLITE DEBRIS
Your satellite tracking list
Your tracking list is empty




NASA's NSSDC Master Catalog

Two Line Element Set (TLE):
1 42096U 81053PG  24194.42144591  .00008199  00000-0  34056-2 0  9995
2 42096  82.7175  82.8833 0049194  46.6229 313.9036 14.25691601545689
Source of the keplerian elements: AFSPC